Location: Cussy
(47.0410°N, 4.6412°E)
Time: 06:28:28
(UTC+00:00)

CZ-4B R/B - Pass Details

Date: 30 November 2020
Orbit: 390 x 458 km, 97.6° (Epoch: 18 January)

Event Time Altitude Azimuth Distance (km) Brightness Sun altitude
Exits shadow 17:40:34 26° 8° (N) 842 2.5 -17.5°
Maximum altitude 17:42:11 79° 284° (WNW) 418 1.2 -17.7°
Drops below altitude 10° 17:45:20 10° 198° (SSW) 1,475 4.4 -18.2°
Sets 17:47:20 0° 197° (SSW) 2,344 5.4 -18.6°
